Time,TemperatureF,DewpointF,PressureIn,WindDirection,WindDirectionDegrees,WindSpeedMPH,WindSpeedGustMPH,Humidity,HourlyPrecipIn,Conditions,Clouds,dailyrainin,SolarRadiationWatts/m^2,SoftwareType,DateUTC
2013-08-07 00:01:00,60.0,52.0,29.85,East,88,3.0,12.0,74,0.00,,,0.01,0.000000,,2013-08-07 08:01:00,
2013-08-07 00:32:00,60.0,51.0,29.84,ENE,69,2.0,8.0,73,0.00,,,0.00,0.000000,,2013-08-07 08:32:00,
2013-08-07 00:43:00,60.0,52.0,29.84,East,88,2.0,8.0,75,0.00,,,0.00,0.000000,,2013-08-07 08:43:00,
2013-08-07 00:52:00,59.0,51.0,29.84,ENE,70,2.0,8.0,76,0.00,,,0.00,0.000000,,2013-08-07 08:52:00,
2013-08-07 01:01:00,59.0,52.0,29.84,East,93,1.0,6.0,77,0.00,,,0.00,0.000000,,2013-08-07 09:01:00,
2013-08-07 01:11:00,59.0,52.0,29.84,East,93,1.0,6.0,77,0.00,,,0.00,0.000000,,2013-08-07 09:11:00,
2013-08-07 01:21:00,59.0,52.0,29.84,East,79,3.0,7.0,77,0.00,,,0.00,0.000000,,2013-08-07 09:21:00,
2013-08-07 01:32:00,59.0,51.0,29.84,East,92,5.0,12.0,76,0.00,,,0.00,0.000000,,2013-08-07 09:32:00,
2013-08-07 01:54:00,60.0,51.0,29.83,East,100,3.0,13.0,73,0.00,,,0.00,0.000000,,2013-08-07 09:54:00,
2013-08-07 02:01:00,60.0,51.0,29.83,SE,126,3.0,13.0,73,0.00,,,0.00,0.000000,,2013-08-07 10:01:00,
2013-08-07 02:11:00,60.0,52.0,29.83,East,90,3.0,9.0,74,0.00,,,0.00,0.000000,,2013-08-07 10:11:00,
2013-08-07 02:21:00,60.0,52.0,29.83,East,85,3.0,9.0,75,0.00,,,0.00,0.000000,,2013-08-07 10:21:00,
2013-08-07 02:43:00,58.0,52.0,29.83,ENE,77,2.0,5.0,79,0.00,,,0.00,0.000000,,2013-08-07 10:43:00,
2013-08-07 02:52:00,58.0,52.0,29.83,ENE,77,2.0,5.0,79,0.00,,,0.00,0.000000,,2013-08-07 10:52:00,
2013-08-07 03:01:00,58.0,51.0,29.83,East,79,2.0,8.0,78,0.00,,,0.00,0.000000,,2013-08-07 11:01:00,
2013-08-07 03:32:00,59.0,52.0,29.82,East,86,2.0,9.0,77,0.00,,,0.00,0.000000,,2013-08-07 11:32:00,
2013-08-07 03:43:00,59.0,51.0,29.82,East,85,2.0,10.0,76,0.00,,,0.00,0.000000,,2013-08-07 11:43:00,
2013-08-07 03:52:00,59.0,51.0,29.82,East,85,2.0,10.0,76,0.00,,,0.00,0.000000,,2013-08-07 11:52:00,
2013-08-07 04:02:00,59.0,51.0,29.82,East,100,2.0,8.0,76,0.00,,,0.00,0.000000,,2013-08-07 12:02:00,
2013-08-07 04:32:00,58.0,52.0,29.81,East,100,2.0,6.0,80,0.00,,,0.00,0.000000,,2013-08-07 12:32:00,
2013-08-07 04:43:00,58.0,52.0,29.81,East,96,1.0,5.0,80,0.00,,,0.00,0.000000,,2013-08-07 12:43:00,
2013-08-07 04:52:00,58.0,52.0,29.81,East,96,1.0,5.0,80,0.00,,,0.00,0.000000,,2013-08-07 12:52:00,
2013-08-07 05:02:00,58.0,52.0,29.81,East,92,2.0,5.0,80,0.00,,,0.00,0.000000,,2013-08-07 13:02:00,
2013-08-07 05:11:00,58.0,52.0,29.81,East,87,1.0,9.0,80,0.00,,,0.00,0.000000,,2013-08-07 13:11:00,
2013-08-07 05:22:00,58.0,52.0,29.81,East,101,2.0,9.0,80,0.00,,,0.00,0.000000,,2013-08-07 13:22:00,
2013-08-07 05:32:00,58.0,52.0,29.80,ENE,71,2.0,7.0,80,0.00,,,0.00,0.000000,,2013-08-07 13:32:00,
2013-08-07 05:43:00,57.0,51.0,29.80,ENE,77,1.0,5.0,81,0.00,,,0.00,0.000000,,2013-08-07 13:43:00,
2013-08-07 05:52:00,57.0,52.0,29.80,East,89,1.0,7.0,82,0.00,,,0.00,0.000000,,2013-08-07 13:52:00,
2013-08-07 06:01:00,57.0,52.0,29.81,East,87,2.0,5.0,82,0.00,,,0.00,0.000000,,2013-08-07 14:01:00,
2013-08-07 06:11:00,57.0,52.0,29.81,East,87,2.0,5.0,82,0.00,,,0.00,0.000000,,2013-08-07 14:11:00,
2013-08-07 06:22:00,57.0,52.0,29.80,East,101,2.0,7.0,82,0.00,,,0.00,0.000000,,2013-08-07 14:22:00,
2013-08-07 06:33:00,57.0,52.0,29.80,ENE,78,2.0,5.0,82,0.00,,,0.00,0.000000,,2013-08-07 14:33:00,
2013-08-07 06:42:00,57.0,52.0,29.80,ESE,103,1.0,7.0,83,0.00,,,0.00,7.000000,,2013-08-07 14:42:00,
2013-08-07 07:02:00,57.0,52.0,29.80,East,88,1.0,3.0,83,0.00,,,0.00,11.000000,,2013-08-07 15:02:00,
2013-08-07 07:33:00,56.0,51.0,29.80,ENE,76,2.0,5.0,84,0.00,,,0.00,26.000000,,2013-08-07 15:33:00,
2013-08-07 07:43:00,56.0,52.0,29.80,East,80,0.0,3.0,85,0.00,,,0.00,26.000000,,2013-08-07 15:43:00,
2013-08-07 07:53:00,56.0,52.0,29.80,East,80,0.0,3.0,85,0.00,,,0.00,26.000000,,2013-08-07 15:53:00,
2013-08-07 08:02:00,56.0,52.0,29.80,East,92,1.0,3.0,85,0.00,,,0.00,26.000000,,2013-08-07 16:02:00,
2013-08-07 08:11:00,56.0,52.0,29.80,ENE,66,0.0,2.0,85,0.00,,,0.00,28.000000,,2013-08-07 16:11:00,
2013-08-07 08:22:00,57.0,53.0,29.80,ENE,66,0.0,1.0,85,0.00,,,0.00,37.000000,,2013-08-07 16:22:00,
2013-08-07 08:52:00,57.0,52.0,29.80,ESE,115,1.0,3.0,84,0.00,,,0.00,47.000000,,2013-08-07 16:52:00,
2013-08-07 09:01:00,58.0,53.0,29.80,East,82,2.0,6.0,83,0.00,,,0.00,58.000000,,2013-08-07 17:01:00,
2013-08-07 09:11:00,58.0,53.0,29.80,East,82,2.0,6.0,83,0.00,,,0.00,58.000000,,2013-08-07 17:11:00,
2013-08-07 09:33:00,59.0,54.0,29.79,East,82,2.0,5.0,82,0.00,,,0.00,58.000000,,2013-08-07 17:33:00,
2013-08-07 09:43:00,59.0,54.0,29.79,East,84,1.0,6.0,82,0.00,,,0.00,63.000000,,2013-08-07 17:43:00,
2013-08-07 09:52:00,59.0,54.0,29.79,ENE,76,1.0,5.0,82,0.00,,,0.00,69.000000,,2013-08-07 17:52:00,
2013-08-07 10:02:00,59.0,53.0,29.79,East,87,2.0,5.0,81,0.00,,,0.00,88.000000,,2013-08-07 18:02:00,
2013-08-07 10:11:00,59.0,54.0,29.79,ENE,68,1.0,7.0,82,0.00,,,0.00,100.000000,,2013-08-07 18:11:00,
2013-08-07 10:32:00,59.0,53.0,29.79,East,87,3.0,9.0,81,0.00,,,0.00,123.000000,,2013-08-07 18:32:00,
2013-08-07 10:52:00,60.0,54.0,29.78,East,91,3.0,8.0,80,0.00,,,0.00,163.000000,,2013-08-07 18:52:00,
2013-08-07 11:01:00,60.0,53.0,29.79,East,84,2.0,7.0,79,0.00,,,0.00,156.000000,,2013-08-07 19:01:00,
2013-08-07 11:11:00,61.0,54.0,29.79,SSE,154,2.0,8.0,79,0.00,,,0.00,190.000000,,2013-08-07 19:11:00,
2013-08-07 11:22:00,61.0,54.0,29.79,ENE,57,1.0,8.0,78,0.00,,,0.00,241.000000,,2013-08-07 19:22:00,
2013-08-07 11:32:00,62.0,55.0,29.78,East,96,4.0,8.0,77,0.00,,,0.00,236.000000,,2013-08-07 19:32:00,
2013-08-07 11:43:00,63.0,55.0,29.78,East,93,3.0,9.0,75,0.00,,,0.00,225.000000,,2013-08-07 19:43:00,
2013-08-07 11:52:00,63.0,55.0,29.78,East,93,3.0,9.0,75,0.00,,,0.00,225.000000,,2013-08-07 19:52:00,
2013-08-07 12:02:00,63.0,55.0,29.78,East,96,2.0,7.0,76,0.00,,,0.00,193.000000,,2013-08-07 20:02:00,
2013-08-07 12:11:00,63.0,55.0,29.78,East,98,3.0,8.0,75,0.00,,,0.00,202.000000,,2013-08-07 20:11:00,
2013-08-07 12:22:00,64.0,56.0,29.78,ESE,104,3.0,7.0,74,0.00,,,0.00,163.000000,,2013-08-07 20:22:00,
2013-08-07 12:32:00,64.0,55.0,29.78,ESE,104,4.0,9.0,72,0.00,,,0.00,137.000000,,2013-08-07 20:32:00,
2013-08-07 12:43:00,64.0,55.0,29.77,ENE,61,2.0,8.0,72,0.00,,,0.00,163.000000,,2013-08-07 20:43:00,
2013-08-07 12:52:00,64.0,55.0,29.77,ENE,61,2.0,8.0,72,0.00,,,0.00,163.000000,,2013-08-07 20:52:00,
2013-08-07 13:11:00,64.0,56.0,29.77,ESE,107,2.0,9.0,74,0.00,,,0.00,218.000000,,2013-08-07 21:11:00,
2013-08-07 13:22:00,64.0,55.0,29.77,ENE,68,2.0,6.0,73,0.00,,,0.00,197.000000,,2013-08-07 21:22:00,
2013-08-07 13:32:00,65.0,56.0,29.76,East,90,3.0,7.0,72,0.00,,,0.00,229.000000,,2013-08-07 21:32:00,
2013-08-07 13:43:00,65.0,55.0,29.76,ENE,78,2.0,9.0,69,0.00,,,0.00,267.000000,,2013-08-07 21:43:00,
2013-08-07 14:01:00,65.0,53.0,29.76,East,83,5.0,13.0,66,0.00,,,0.00,255.000000,,2013-08-07 22:01:00,
2013-08-07 14:43:00,66.0,53.0,29.75,South,172,7.0,14.0,62,0.00,,,0.00,227.000000,,2013-08-07 22:43:00,
2013-08-07 14:52:00,66.0,53.0,29.75,South,172,7.0,14.0,62,0.00,,,0.00,227.000000,,2013-08-07 22:52:00,
2013-08-07 15:01:00,66.0,53.0,29.75,ESE,105,5.0,14.0,62,0.00,,,0.00,207.000000,,2013-08-07 23:01:00,
2013-08-07 15:11:00,66.0,53.0,29.75,East,92,4.0,12.0,62,0.00,,,0.00,225.000000,,2013-08-07 23:11:00,
2013-08-07 15:22:00,66.0,53.0,29.75,East,96,5.0,10.0,62,0.00,,,0.00,216.000000,,2013-08-07 23:22:00,
2013-08-07 15:32:00,66.0,53.0,29.75,East,84,6.0,13.0,62,0.00,,,0.00,172.000000,,2013-08-07 23:32:00,
2013-08-07 15:43:00,65.0,53.0,29.75,East,93,2.0,14.0,65,0.00,,,0.00,97.000000,,2013-08-07 23:43:00,
2013-08-07 15:52:00,65.0,53.0,29.75,ESE,107,4.0,10.0,64,0.00,,,0.00,111.000000,,2013-08-07 23:52:00,
2013-08-07 16:01:00,65.0,53.0,29.75,SE,129,3.0,13.0,65,0.00,,,0.00,111.000000,,2013-08-08 00:01:00,
2013-08-07 16:11:00,65.0,53.0,29.75,SE,129,3.0,13.0,65,0.00,,,0.00,111.000000,,2013-08-08 00:11:00,
2013-08-07 16:22:00,65.0,53.0,29.75,East,90,2.0,8.0,65,0.00,,,0.00,95.000000,,2013-08-08 00:22:00,
2013-08-07 16:32:00,64.0,52.0,29.75,ESE,102,4.0,14.0,65,0.00,,,0.00,84.000000,,2013-08-08 00:32:00,
2013-08-07 16:42:00,64.0,53.0,29.75,SE,126,2.0,13.0,67,0.00,,,0.00,118.000000,,2013-08-08 00:42:00,
2013-08-07 16:52:00,64.0,53.0,29.75,SE,126,2.0,13.0,67,0.00,,,0.00,118.000000,,2013-08-08 00:52:00,
2013-08-07 17:02:00,64.0,54.0,29.75,East,100,2.0,10.0,71,0.00,,,0.00,132.000000,,2013-08-08 01:02:00,
2013-08-07 17:11:00,63.0,54.0,29.75,ESE,105,4.0,10.0,72,0.00,,,0.00,109.000000,,2013-08-08 01:11:00,
2013-08-07 17:21:00,62.0,54.0,29.75,SE,133,1.0,12.0,74,0.00,,,0.00,118.000000,,2013-08-08 01:21:00,
2013-08-07 17:32:00,62.0,54.0,29.75,SE,133,1.0,12.0,74,0.00,,,0.00,118.000000,,2013-08-08 01:32:00,
2013-08-07 17:52:00,61.0,54.0,29.75,ESE,115,3.0,12.0,77,0.01,,,0.01,97.000000,,2013-08-08 01:52:00,
2013-08-07 18:02:00,61.0,54.0,29.75,ESE,113,4.0,9.0,77,0.01,,,0.01,81.000000,,2013-08-08 02:02:00,
2013-08-07 18:22:00,61.0,54.0,29.75,ESE,110,3.0,8.0,79,0.01,,,0.01,91.000000,,2013-08-08 02:22:00,
2013-08-07 18:42:00,60.0,55.0,29.75,ESE,109,0.0,7.0,84,0.01,,,0.02,54.000000,,2013-08-08 02:42:00,
2013-08-07 18:52:00,60.0,56.0,29.75,ENE,78,1.0,3.0,86,0.01,,,0.02,51.000000,,2013-08-08 02:52:00,
2013-08-07 19:01:00,59.0,55.0,29.75,East,86,1.0,5.0,88,0.01,,,0.02,37.000000,,2013-08-08 03:01:00,
2013-08-07 19:11:00,59.0,55.0,29.75,East,86,1.0,5.0,88,0.01,,,0.02,37.000000,,2013-08-08 03:11:00,
2013-08-07 19:32:00,59.0,56.0,29.74,ESE,105,1.0,5.0,89,0.03,,,0.05,30.000000,,2013-08-08 03:32:00,
2013-08-07 19:43:00,59.0,56.0,29.74,ESE,105,1.0,5.0,89,0.03,,,0.05,30.000000,,2013-08-08 03:43:00,
2013-08-07 19:52:00,58.0,55.0,29.74,East,97,1.0,7.0,90,0.04,,,0.06,32.000000,,2013-08-08 03:52:00,
2013-08-07 20:01:00,58.0,55.0,29.74,ESE,105,2.0,6.0,91,0.05,,,0.07,30.000000,,2013-08-08 04:01:00,
2013-08-07 20:32:00,57.0,54.0,29.74,East,84,0.0,6.0,91,0.04,,,0.09,21.000000,,2013-08-08 04:32:00,
2013-08-07 20:43:00,57.0,54.0,29.74,East,84,0.0,6.0,91,0.04,,,0.09,21.000000,,2013-08-08 04:43:00,
2013-08-07 20:53:00,57.0,55.0,29.74,NE,56,2.0,8.0,92,0.05,,,0.11,18.000000,,2013-08-08 04:53:00,
2013-08-07 21:01:00,56.0,54.0,29.73,ENE,59,2.0,7.0,92,0.04,,,0.11,18.000000,,2013-08-08 05:01:00,
2013-08-07 21:11:00,56.0,54.0,29.73,ENE,59,2.0,7.0,92,0.04,,,0.11,18.000000,,2013-08-08 05:11:00,
2013-08-07 21:33:00,56.0,54.0,29.72,ESE,116,2.0,8.0,92,0.06,,,0.15,14.000000,,2013-08-08 05:33:00,
2013-08-07 21:52:00,56.0,54.0,29.73,East,84,2.0,5.0,92,0.05,,,0.15,11.000000,,2013-08-08 05:52:00,
2013-08-07 22:01:00,56.0,54.0,29.72,ENE,71,2.0,7.0,92,0.04,,,0.15,7.000000,,2013-08-08 06:01:00,
2013-08-07 22:11:00,56.0,54.0,29.72,ENE,71,2.0,7.0,92,0.04,,,0.15,7.000000,,2013-08-08 06:11:00,
2013-08-07 22:21:00,55.0,53.0,29.72,ENE,77,1.0,7.0,92,0.04,,,0.15,0.000000,,2013-08-08 06:21:00,
2013-08-07 22:52:00,55.0,53.0,29.72,ENE,71,0.0,5.0,92,0.04,,,0.19,0.000000,,2013-08-08 06:52:00,
2013-08-07 23:01:00,55.0,53.0,29.72,East,79,1.0,3.0,92,0.04,,,0.19,0.000000,,2013-08-08 07:01:00,
2013-08-07 23:22:00,55.0,53.0,29.72,East,80,0.0,3.0,93,0.04,,,0.19,0.000000,,2013-08-08 07:22:00,
2013-08-07 23:32:00,55.0,53.0,29.72,ENE,71,1.0,3.0,93,0.01,,,0.19,0.000000,,2013-08-08 07:32:00,
2013-08-07 23:43:00,55.0,53.0,29.72,ENE,63,0.0,2.0,93,0.00,,,0.19,0.000000,,2013-08-08 07:43:00,
2013-08-07 23:53:00,55.0,53.0,29.72,ENE,63,0.0,2.0,93,0.00,,,0.19,0.000000,,2013-08-08 07:53:00,